PDT,Max TemperatureF,Mean TemperatureF,Min TemperatureF,Max Dew PointF,MeanDew PointF,Min DewpointF,Max Humidity, Mean Humidity, Min Humidity, Max Sea Level PressureIn, Mean Sea Level PressureIn, Min Sea Level PressureIn, Max VisibilityMiles, Mean VisibilityMiles, Min VisibilityMiles, Max Wind SpeedMPH, Mean Wind SpeedMPH, Max Gust SpeedMPH,PrecipitationIn, CloudCover, Events, WindDirDegrees
2013-5-1,88,70,51,43,31,24,46,30,13,30.06,29.96,29.81,10,10,6,14,6,20,0.00,0,,318
2013-5-2,93,72,51,47,39,27,71,41,10,30.17,30.11,30.05,10,9,5,10,4,15,0.00,0,,240
2013-5-3,94,74,54,49,42,34,61,37,12,30.05,29.91,29.77,10,9,6,12,5,17,0.00,0,,329
2013-5-4,94,74,53,45,40,30,71,42,13,29.76,29.64,29.52,10,9,7,14,5,20,0.00,0,,253
2013-5-5,79,66,53,46,43,33,66,49,31,29.84,29.73,29.62,10,10,8,20,6,28,0.00,2,,239
2013-5-6,79,69,59,49,45,42,67,49,31,29.97,29.88,29.84,10,10,2,18,7,24,0.00,5,,255
2013-5-7,71,63,55,55,52,47,93,71,49,30.05,30.02,29.99,10,9,4,14,5,,0.17,5,Rain,87
2013-5-8,78,65,52,56,52,48,93,66,38,30.12,30.06,30.02,10,8,4,15,5,16,0.01,5,Rain,354
2013-5-9,83,70,57,53,49,42,77,53,28,30.11,30.07,30.03,10,10,10,14,7,26,0.00,2,,325
2013-5-10,89,74,59,57,54,51,72,52,31,30.14,30.09,30.03,10,10,10,13,6,16,0.00,0,,331
2013-5-11,96,78,60,59,57,55,84,56,28,30.11,30.05,29.97,10,9,5,10,2,14,0.00,0,,346
2013-5-12,100,82,64,58,54,47,68,44,20,30.10,30.02,29.92,10,10,10,14,6,18,0.00,0,,325
2013-5-13,99,81,62,52,50,46,65,43,21,30.04,29.96,29.86,10,10,10,15,7,21,0.00,0,,319
2013-5-14,92,76,59,54,48,39,72,44,16,29.93,29.89,29.85,10,10,5,18,7,23,0.00,0,,322
2013-5-15,92,76,60,47,43,37,60,38,15,30.01,29.94,29.88,10,10,9,23,10,30,0.00,0,,326
2013-5-16,76,65,54,49,46,42,67,52,37,30.01,29.96,29.91,10,10,9,21,9,26,0.00,1,,329
2013-5-17,82,69,55,48,41,35,66,44,21,30.01,29.97,29.94,10,10,10,20,11,26,0.00,0,,326
2013-5-18,84,69,53,42,37,29,54,34,14,30.12,30.05,30.01,10,10,10,17,8,22,0.00,0,,328
2013-5-19,87,74,61,49,43,40,56,38,20,30.07,30.00,29.92,10,10,10,18,12,23,0.00,0,,325
2013-5-20,93,72,51,46,40,34,66,41,15,30.01,29.94,29.88,10,9,7,12,5,,0.00,0,,297
2013-5-21,92,73,54,48,38,22,66,37,8,29.92,29.86,29.78,10,7,3,17,8,24,0.00,0,,322
2013-5-22,74,64,53,40,27,12,59,35,10,29.97,29.90,29.85,10,9,5,14,14,17,0.00,0,,324
2013-5-23,76,62,48,39,34,28,56,37,18,29.96,29.93,29.89,10,10,10,15,9,20,0.00,0,,320
2013-5-24,82,65,47,41,37,32,66,42,17,29.99,29.94,29.87,10,10,9,16,6,,0.00,0,,318
2013-5-25,84,66,47,43,37,30,66,41,15,29.99,29.95,29.91,10,10,10,20,7,25,0.00,0,,327
2013-5-26,83,70,56,47,44,39,62,44,26,30.08,30.03,29.98,10,10,10,18,12,26,0.00,0,,329
2013-5-27,79,68,56,52,46,40,67,47,27,30.09,30.03,29.96,10,10,10,22,13,30,T,0,,323
2013-5-28,84,71,58,54,52,49,75,53,31,29.98,29.92,29.84,10,10,10,22,11,28,0.00,2,,320
2013-5-29,87,73,59,55,49,40,69,48,27,29.93,29.87,29.80,10,10,10,20,11,25,0.00,0,,323
2013-5-30,89,70,51,50,43,38,66,42,18,29.94,29.90,29.85,10,10,10,16,8,21,0.00,0,,318
2013-5-31,93,76,58,48,42,33,46,31,16,29.98,29.92,29.87,10,10,10,16,9,21,0.00,0,,324